Tracking 28790 objects as of 19-Apr-2024
HD Live streaming from Space Station
objects crossing your sky now

ATLAS 1 CENTAUR R/B

Track ATLAS 1 CENTAUR R/B now!


NORAD ID: 20713
Int'l Code: 1990-065B
Perigee: 370.9 km
Apogee: 30,002.7 km
Inclination: 17.6 °
Period: 525.0 minutes
Semi major axis: 21557 km
RCS: 16.9997 m2 (large)
Launch date: July 25, 1990
Source: United States (US)
Launch site: AIR FORCE EASTERN TEST RANGE (AFETR)

Note: This is a ROCKET BODY
Your satellite tracking list
Your tracking list is empty




NASA's NSSDC Master Catalog

Two Line Element Set (TLE):
1 20713U 90065B   24109.59419204  .00001773  00000-0  28059-2 0  9997
2 20713  17.5793 173.3975 6872646 181.7263 173.2906  2.74281016320924
Source of the keplerian elements: AFSPC